Home   Weather   Amman   Past weeks

Flag for Jordan Past Weather in Amman, Jordan — Yesterday and Last 2 Weeks

Now
82 °F

Haze.


Feels Like: 80 °F
Forecast: 67 / 85 °F
Wind: 12 mph from East

Location: Amman Airport

Current Time: Oct 1, 2016 at 6:32:14 PM

Latest Report: Oct 1, 2016 at 5:00 PM


Visibility: 3 mi

Pressure: 30.04 "Hg (27.38 "Hg at 816m altitude)

Humidity: 16%

Dew Point: 32 °F

Location of AmmanLocation

Past Weather in Amman — Graph

°F

Amman Temperature Yesterday

Maximum temperature yesterday: 82 °F (at 3:00 PM)
Minimum temperature yesterday: 63 °F (at 3:00 AM)
Average temperature yesterday: 72 °F

High & Low Weather Summary for the Past Weeks

 TemperatureHumidityPressure
High93 °F (Sep 20, 3:00 PM)94% (Sep 29, 7:00 AM)30.15 "Hg (Sep 29, 7:00 AM)
Low59 °F (Sep 29, 6:00 AM)13% (Sep 20, 3:00 PM)29.83 "Hg (Sep 25, 4:00 PM)
Average73 °F51%30.01 "Hg
* Reported Sep 16 5:00 PM — Oct 1 5:00 PM, Amman, Weather by CustomWeather, © 2016

Note: Actual official high and low records may vary slightly from our data, if they occured in-between our weather recording intervals... More about our weather records

Advertising

Amman Weather History for the Previous 24 Hours

Scroll right to see more
 ConditionsComfort  
Time TempWeatherWind HumidityBarometerVisibility
5:00 PM
Sat, Oct 1
82 °FHaze.12 mph16%30.04 "Hg3 mi
4:00 PM84 °FHaze.12 mph15%30.04 "Hg3 mi
3:00 PM84 °FHaze.12 mph15%30.04 "Hg3 mi
2:00 PM84 °FHaze.12 mph16%30.04 "Hg3 mi
1:00 PM81 °FHaze.7 mph18%30.04 "Hg3 mi
12:00 PM79 °FDuststorm.13 mph21%30.04 "Hg2 mi
11:00 AM77 °FDuststorm.10 mph30%30.04 "Hg2 mi
10:00 AM75 °FDuststorm.10 mph34%30.04 "Hg1 mi
9:00 AM72 °FHaze.10 mph33%30.04 "Hg3 mi
8:00 AM68 °FClear.5 mph35%30.04 "Hg2 mi
7:00 AM63 °FHaze.No wind49%30.01 "Hg3 mi
6:00 AM63 °FHaze.3 mph52%30.01 "Hg3 mi
5:00 AM64 °FClear.No wind46%30.01 "Hg4 mi
4:00 AM63 °FClear.No wind56%30.01 "Hg4 mi
3:00 AM64 °FClear.No wind56%30.01 "Hg4 mi
2:00 AM64 °FClear.No wind56%30.01 "Hg4 mi
1:00 AM64 °FClear.No wind56%30.01 "Hg4 mi
11:00 PM
Fri, Sep 30
68 °FClear.No wind53%30.04 "Hg4 mi
10:00 PM70 °FClear.No wind50%30.04 "Hg4 mi
9:00 PM70 °FClear.No wind50%30.01 "Hg4 mi
8:00 PM73 °FClear.6 mph23%30.01 "Hg4 mi
7:00 PM77 °FClear.6 mph21%30.01 "Hg4 mi
6:00 PM81 °FClear.6 mph23%30.01 "Hg4 mi
Weather by CustomWeather, © 2016

See weather overviewHow to use our weather pages